Other Public Products
Issued by NWS Grand Forks, ND

Home | Current Version | Previous Version | Graphics & Text | Print | Product List | Glossary On
Versions: 1 2 3 4 5 6 7 8 9 10 11 12 13 14 15 16 17 18 19 20 21 22 23 24 25 26 27 28 29 30 31 32 33 34 35 36 37 38 39 40 41 42 43 44 45 46 47 48 49 50
000
FPUS83 KFGF 081431
OPUFGF
PRAIRIE TO PINES WEATHER ROUNDUP
NATIONAL WEATHER SERVICE EASTERN NORTH DAKOTA/GRAND FORKS ND
800 AM CST MON FEB 08 2016

 **SATELLITE DATA USED TO AUGMENT SKY COVER AT AUTOMATED STATIONS**
 *****  WEATHER ACROSS EASTERN NORTH DAKOTA  *****

CITY           SKY/WX    TMP DP  RH WIND       PRES   REMARKS
GRAND FORKS    LGT SNOW  13   8  81 N21G29    30.18R VSB 1   WCI  -5
GRAND FORKS AF LGT SNOW  14   9  79 N25G31    30.18R WCI  -5
GRAND CITY NWS   N/A     12 N/A N/A N9          N/A  WCI   0
BUXTON           N/A     12  10  92 NW14        N/A  WCI  -3
DEVILS LAKE    FLURRIES  17  11  77 NW22G29   30.18R WCI   0
FARGO          LGT SNOW  14   8  77 N25G31    30.15R WCI  -5
WAHPETON ARPT  CLOUDY    12   9  85 N22G30    30.13R WCI  -7
$$

 *****  WEATHER ACROSS CENTRAL AND WESTERN NORTH DAKOTA  *****

CITY           SKY/WX    TMP DP  RH WIND       PRES   REMARKS
JAMESTOWN      FLURRIES  19  12  74 N20       30.16R WCI   3
BISMARCK       CLEAR     25  17  72 NW18      30.27S WCI  11
MINOT          PTCLDY    24  14  65 W22G29    30.26R WCI   9
MINOT AFB      CLOUDY    22  17  80 NW16      30.27R WCI   8
GARRISON         N/A     20  15  81 NW15      30.28R WCI   6
WILLISTON      MOCLDY    23  16  74 NW10      30.37R WCI  12
DICKINSON      PTCLDY    18  13  80 NW16      30.30R WCI   3
HETTINGER      PTCLDY    19  13  77 NW15      30.32S WCI   5
$$

 *****  OTHER OBSERVATIONS NORTHEAST NORTH DAKOTA  *****

CITY           SKY/WX    TMP DP  RH WIND       PRES   REMARKS
WALHALLA       FLURRIES  12   9  85 N23G31    30.22R WCI  -7
LANGDON        LGT SNOW  14   9  79 N21G28    30.16R WCI  -4
CAVALIER       LGT SNOW  14   7  73 N23G37    30.19R WCI  -5
GRAFTON        LGT SNOW  12   9  85 N23       30.20R WCI  -7
CANDO          CLOUDY    16  12  86 NW24G30   30.23R WCI  -3
FORT TOTTEN      N/A     16  13  89 NW8       29.95S WCI   5
ROLLA          FAIR      12   9  85 NW28      30.19R WCI  -9
RUGBY          FAIR      16  10  79 NW15G22   30.23R WCI   1
 ***** THE ABOVE OBSERVATIONS ARE NON NWS ARE NOT QUALITY
        CONTROLLED AND MAY MIS-REPORT RAIN FOR SNOW...
$$

 *****  OTHER OBSERVATIONS SOUTHEAST NORTH DAKOTA *****

CITY           SKY/WX    TMP DP  RH WIND       PRES   REMARKS
COOPERSTOWN    NOT AVBL
VALLEY CITY    FLURRIES  16  10  79 N22G28    30.17R WCI  -2
OAKES          FLURRIES  18  14  86 N18G26    30.15R WCI   2
GWINNER        CLOUDY    19  14  79 N16G24    30.15R WCI   5
SHEYENNE NWR     N/A     14   9  80 N13       29.95  WCI   0
BUFFALO          N/A     15   8  75 N21G37      N/A  WCI  -3
WYNDMERE         N/A     12  10  92 N20         N/A  WCI  -6
 ***** THE ABOVE OBSERVATIONS ARE NON NWS ARE NOT QUALITY
       CONTROLLED AND MAY MIS-REPORT RAIN FOR SNOW...
$$

  *****  WEATHER ACROSS NORTHERN MINNESOTA  *****

CITY           SKY/WX    TMP DP  RH WIND       PRES   REMARKS
FLAG ISLAND    CLOUDY     1  -4  78 NW25      30.04R WCI -22
WARROAD        CLOUDY     5  -2  72 NW12G20   30.06R WCI -11
ROSEAU         CLOUDY     9   1  72 N21       30.08R HAZE    WCI -11
HALLOCK        CLOUDY    10   7  85 N18G28    30.16R WCI  -8
THF RVR FALLS  NOT AVBL
HALSTAD          N/A     12   9  87 N22         N/A  WCI  -7
FOSSTON        NOT AVBL
BAUDETTE       LGT SNOW   3  -3  76 NW22G31   30.00R WCI -19
WASKISH        CLOUDY     3   0  85 NW12G17   29.99F WCI -13
CROOKSTON      LGT SNOW  10   9  92 N24G30    30.16R VSB 3/4 WCI -10
$$
  *****  WEATHER ACROSS CENTRAL AND WEST MINNESOTA  *****

CITY           SKY/WX    TMP DP  RH WIND       PRES   REMARKS
BEMIDJI        FLURRIES   4  -1  77 NW13G23   29.98S WCI -12
PARK RAPIDS    CLOUDY     6  -1  73 NW18G28   29.97R WCI -13
WADENA         FLURRIES   7   1  78 NW24G30   29.98S WCI -15
DETROIT LAKES  LGT SNOW  10   5  79 N26G35    30.04S WCI -11
MOORHEAD       MIX PCPN  10   9  92 N29G38    30.14R VSB 1/2 WCI -11
FERGUS FALLS   LGT SNOW  10   5  79 N24G40    30.10R WCI -10
ELBOW LAKE     CLOUDY    10   4  78 NW24G41   30.05R WCI -11
MORRIS MN      SNOW      10   7  85 N29G37    30.04R VSB 1/2 WCI -11
STAPLES        LGT SNOW   5   0  78 NW20G25   29.97R WCI -15
WHEATON        CLOUDY    14   9  79 N23G36    30.14R WCI  -5
$$
  *****  WEATHER ELSEWHERE ACROSS MINNESOTA  *****

CITY           SKY/WX    TMP DP  RH WIND       PRES   REMARKS
DULUTH         LGT SNOW   8   2  76 NW16G24   29.80R BLWGSNOWWCI -10
INTRNTL FALLS  LGT SNOW   4  -2  76 NW14G21   29.94S WCI -14
ELY            LGT SNOW   9   5  85 NW8       29.82R WCI  -4
CLOQUET        LGT SNOW   7   1  78 NW14G22   29.84R WCI -10
BRAINERD       LGT SNOW   6   1  80 NW16G25   29.94R WCI -12
HIBBING        LGT SNOW   4   0  83 NW16      29.86R FOG     WCI -15
ALEXANDRIA     LGT SNOW   8   0  69 N23G32    29.98R WCI -13
SAINT CLOUD    CLOUDY     8   1  73 NW13G22   29.93R WCI  -8
MINNEAPOLIS    CLOUDY    11   2  67 NW24G31   29.89R WCI  -9
$$

  *****  WEATHER ACROSS SOUTH DAKOTA  *****

CITY           SKY/WX    TMP DP  RH WIND       PRES   REMARKS
SIOUX FALLS    LGT SNOW  20  14  77 N24G39    30.06R BLWGSNOWWCI   3
BROOKINGS      LGT SNOW  18  10  73 N30G40    30.03S WCI  -2
WATERTOWN      LGT SNOW  18  10  71 N32G45    30.07R WCI  -2
HURON          CLOUDY    24  16  71 N21       30.16R WCI   9
SISSETON         N/A     15  11  83 N26G36    30.11R WCI  -4
ABERDEEN       MOCLDY    22  13  68 N25G33    30.18R WCI   5
MITCHELL       CLOUDY    26  18  71 N20G30    30.16R WCI  12
PIERRE         CLEAR     26  17  68 NW25G36   30.26R WCI  11
MOBRIDGE       CLEAR     24  16  71 NW12G22   30.23R WCI  13
RAPID CITY       N/A     29   9  43 NW25G37   30.31R WCI  14
$$

  *****  SOME WEATHER IN NEARBY STATES *****

CITY           SKY/WX    TMP DP  RH WIND       PRES   REMARKS
GLASGOW MT     CLOUDY    22  15  75 NW5       30.39F WCI  16
GREAT FALLS MT PTCLDY    37  23  56 SW14      30.42S
CHEYENNE WY    CLOUDY    34  19  54 N15G29    30.32R WCI  24
SCOTTSBLUFF NE MOCLDY    23  12  62 W13       30.37S WCI  11
OMAHA NE       FLURRIES  27  19  72 NW29G43   30.02S WCI  11
DES MOINES IA  LGT SNOW  18  11  74 NW20G31   29.93R VSB 3/4 WCI   2
DAVENPORT IA   FLURRIES  19  12  74 NW17G24   29.76R WCI   4
CHICAGO IL     FLURRIES  30  23  75 W17       29.63R WCI  18
EAU CLAIRE WI  LGT SNOW  14   7  73 NW13G20   29.78R WCI   0
LA CROSSE WI   FLURRIES  18  10  71 NW17      29.77R WCI   3
$$

  *****  SOME NATIONAL WEATHER *****

CITY           SKY/WX    TMP DP  RH WIND       PRES   REMARKS
LA GUARDIA NY  CLOUDY    37  26  64 NE21G29   29.78F
RALEIGH NC     MOSUNNY   36  28  73 SW3       29.84R
ATLANTA GA     PTSUNNY   40  25  55 W8        29.85S
NEW ORLEANS LA MOSUNNY   52  42  69 W16G22    30.13R
OKLAHOMA CITY  CLEAR     36  16  44 NW15G25   30.29R
ALBUQUERQUE NM CLEAR     31  19  61 NW6       30.44S
SALT LAKE CITY PTCLDY    25  20  81 CALM      30.68R HAZE
LOS ANGELES CA CLEAR     56  34  43 SE5       30.11R
BOISE ID       CLEAR     32  28  85 SE8       30.68R WCI  25
SEATTLE WA     CLEAR     40  37  89 N6        30.46S
$$

*** WEATHER ACROSS MANITOBA...SASKATCHEWAN AND ONTARIO ***
                ***ONTARIO***

CITY           SKY/WX    TMP DP  RH WIND       PRES   REMARKS
GERALDTON      LGT SNOW  -4  -9  77 N8        29.78R DRFTSNOWWCI -19
THUNDER BAY    FLURRIES   5  -2  72 NW12G18   29.81R WCI -11
SIOUX LOOKOUT  LGT SNOW   0  -6  78 N8        29.90R WCI -15
TORONTO        CLOUDY    36  32  87 E14       29.69S
BIG TROUT LK   PTCLDY   -18 -24  76 NE3       30.08S
PICKLE LAKE    FLURRIES  -9 -17  70 N7        29.90S WCI -24
DRYDEN         LGT SNOW   3  -2  78 N13G21    29.91R WCI -14
KENORA         FLURRIES   0  -6  78 NW16      29.99R WCI -21
$$
                *** MANITOBA***

CITY           SKY/WX    TMP DP  RH WIND       PRES   REMARKS
BRANDON        MOCLDY     5   1  85 NW7       30.25R WCI  -7
DAUPHIN        FLURRIES  12   7  79 NW7       30.28R WCI   2
ISLAND LAKE    NOT AVBL
PILOT MOUND      N/A     12   9  85 NW13G18     N/A  WCI  -3
THE PAS        FLURRIES   5   1  85 NW6       30.33R WCI  -6
THOMPSON       PTCLDY    -2  -9  71 NW10G18   30.24S WCI -19
WINNIPEG       FLURRIES   9   1  72 N28       30.20R WCI -13
LYNN LAKE      CLEAR    -15 -18  84 NW8       30.25F WCI -32
CHURCHILL      LGT SNOW  -9 -17  70 NW17      30.20R DRFTSNOWWCI -33
GILLAM         FLURRIES  -2  -8  78 NW7       30.20R WCI -16
$$
                ***SASKATCHEWAN***

CITY           SKY/WX    TMP DP  RH WIND       PRES   REMARKS
ESTEVAN        CLOUDY    16  14  93 W12       30.32S WCI   3
KINDERSLEY     CLOUDY    21  18  86 S7        30.33F WCI  13
LLOYDMINSTER   CLOUDY    25  18  74 SW9       30.26F WCI  15
PRINCE ALBERT  MOCLDY     5   1  85 W3        30.35F
REGINA         PTCLDY    14  12  92 W7        30.36R WCI   4
YORKTON        CLOUDY    16  10  79 NW13      30.28F WCC1F1C2F2C3F3C4F4C5F5C6F6C7F7C8F8C9F9CaFaCbFbCcFcCdFdCe!


USA.gov is the U.S. government's official web portal to all federal, state and local government web resources and services.